TIANWANG 1B (TW-1B)
1 40927U 15051C   19346.42413375  .00011059  00000-0  15026-3 0  9999
2 40927  97.1168  31.5544 0009239  87.3397 329.1181 15.57724738237497
TIANWANG 1A (TW-1A)
1 40928U 15051D   19346.35005060  .00002150  00000-0  52879-4 0  9990
2 40928  97.1294  13.6707 0011738 143.2514 273.4460 15.41649161236387
LAPAN A2
1 40931U 15052B   19344.08263282  .00000639  00000-0 -55991-7 0  9997
2 40931   5.9991 252.9666 0012722 102.2336 257.9387 14.76621579227076
LQSAT
1 40958U 15057A   19346.17058356  .00000018  00000-0  10386-4 0  9993
2 40958  97.8797  50.4115 0018952  38.5912 321.6647 14.73099836224786
CHUBUSAT 2
1 41338U 16012B   19346.01356058  .00000257  00000-0  13246-4 0  9994
2 41338  31.0029 104.1701 0013715  49.0784 311.1037 15.00218526209411
CHUBUSAT 3
1 41339U 16012C   19346.36186019  .00000247  00000-0  12425-4 0  9998
2 41339  31.0107  99.8254 0013596  59.2358 300.9618 15.00388929209460
OUFTI-1
1 41458U 16025C   19345.79266352  .00001121  00000-0  59995-4 0  9994
2 41458  98.1007  81.6108 0166416 124.5959 237.1093 15.06299268199071
E-STAR-2
1 41459U 16025D   19346.38421670  .00001037  00000-0  56145-4 0  9997
2 41459  98.1006  81.7883 0168118 124.2523 237.4766 15.05904779199133
AAUSAT 4
1 41460U 16025E   19346.26333427  .00002188  00000-0  11094-3 0  9999
2 41460  98.0973  83.3754 0157294 115.6874 246.0700 15.07984241199271
NUSAT 1
1 41557U 16033B   19346.40710468  .00001010  00000-0  40105-4 0  9994
2 41557  97.4128  72.8621 0014618  39.1463 321.0831 15.27591873197066
BEESAT 4
1 41619U 16040W   19346.15262960  .00001113  00000-0  49449-4 0  9996
2 41619  97.3468  44.9116 0012714 119.4569 240.7938 15.23530674180722
PRATHAM
1 41783U 16059A   19345.71164597  .00000066  00000-0  21945-4 0  9993
2 41783  98.0456  41.1937 0033455 188.2200 171.8459 14.63025712171288
ALSAT 1N
1 41789U 16059G   19346.43819319  .00000056  00000-0  19511-4 0  9993
2 41789  98.0484  44.2900 0028535 174.1742 185.9804 14.64282361171519
NAYIF 1
1 42017U 17008BX  19346.18648291  .00001253  00000-0  51582-4 0  9998
2 42017  97.3845  51.3084 0004598 265.4405  94.6308 15.25968413156832
MAX VALIER SAT
1 42778U 17036P   19345.77547075  .00000728  00000-0  34576-4 0  9995
2 42778  97.3329  39.3640 0011334 332.7801  27.2840 15.22294410137020
